ACA735 KLGA-CYUL

Flight info

Callsign ACA735
Flight time 0h 52m
Altitude 37000
Route GREKI DCT JUDDS DCT CAM DCT JASDU DCT PBERG CARTR5
Aircraft A320/M-VGDW/C

Departure

Time 2026-05-07 00:45
Airport LaGuardia Airport (KLGA)

Arrival

Time 2026-05-07 01:37
Airport Montreal / Pierre Elliott Trudeau International Airport (CYUL)
Time Latitude Longitude Altitude Speed Heading
2026-05-07 00:14 40.77397 -73.87030 20 ft 0 kts 104°
2026-05-07 00:36 40.77401 -73.87052 22 ft 4 kts 102°
2026-05-07 00:36 40.77404 -73.87086 20 ft 4 kts 80°
2026-05-07 00:37 40.77395 -73.87110 22 ft 1 kts 32°
2026-05-07 00:37 40.77395 -73.87111 21 ft 0 kts 32°
2026-05-07 00:39 40.77400 -73.87107 20 ft 5 kts 32°
2026-05-07 00:39 40.77448 -73.87066 20 ft 9 kts 32°
2026-05-07 00:40 40.77497 -73.87026 20 ft 8 kts 32°
2026-05-07 00:40 40.77563 -73.86971 19 ft 10 kts 32°
2026-05-07 00:40 40.77630 -73.86964 13 ft 12 kts 311°
2026-05-07 00:40 40.77687 -73.86987 13 ft 10 kts 19°
2026-05-07 00:41 40.77730 -73.87039 13 ft 8 kts 305°
2026-05-07 00:41 40.77758 -73.87095 14 ft 7 kts 303°
2026-05-07 00:41 40.77786 -73.87153 13 ft 8 kts 302°
2026-05-07 00:41 40.77820 -73.87227 13 ft 13 kts 300°
2026-05-07 00:42 40.77876 -73.87348 14 ft 15 kts 302°
2026-05-07 00:42 40.77921 -73.87441 17 ft 6 kts 302°
2026-05-07 00:42 40.77943 -73.87486 16 ft 5 kts 302°
2026-05-07 00:42 40.77973 -73.87549 16 ft 9 kts 302°
2026-05-07 00:43 40.78008 -73.87623 15 ft 10 kts 302°
2026-05-07 00:43 40.78046 -73.87703 16 ft 13 kts 302°
2026-05-07 00:43 40.78094 -73.87804 19 ft 11 kts 302°
2026-05-07 00:43 40.78143 -73.87857 21 ft 9 kts 342°
2026-05-07 00:44 40.78197 -73.87856 17 ft 7 kts 34°
2026-05-07 00:44 40.78180 -73.87757 16 ft 19 kts 125°
2026-05-07 00:44 40.78022 -73.87422 14 ft 79 kts 123°
2026-05-07 00:44 40.77609 -73.86560 15 ft 139 kts 122°
2026-05-07 00:45 40.77065 -73.85421 473 ft 145 kts 125°
2026-05-07 00:45 40.76537 -73.84277 1056 ft 148 kts 128°
2026-05-07 00:45 40.75987 -73.83094 1616 ft 154 kts 128°
2026-05-07 00:45 40.75478 -73.81783 2053 ft 172 kts 106°
2026-05-07 00:46 40.75698 -73.80176 2372 ft 192 kts 54°
2026-05-07 00:46 40.76693 -73.78970 2738 ft 202 kts 28°
2026-05-07 00:46 40.77891 -73.77851 3095 ft 221 kts 30°
2026-05-07 00:46 40.79191 -73.76595 3404 ft 244 kts 32°
2026-05-07 00:47 40.80649 -73.75330 4001 ft 257 kts 22°
2026-05-07 00:47 40.82309 -73.74197 4514 ft 280 kts 22°
2026-05-07 00:47 40.84086 -73.73013 5238 ft 290 kts 21°
2026-05-07 00:47 40.85914 -73.71830 6172 ft 296 kts 20°
2026-05-07 00:48 40.87787 -73.70634 7029 ft 302 kts 19°
2026-05-07 00:48 40.88650 -73.70084 7418 ft 304 kts 19°
2026-05-07 00:48 40.90579 -73.68852 8286 ft 311 kts 19°
2026-05-07 00:48 40.92543 -73.67596 9170 ft 316 kts 19°
2026-05-07 00:49 40.94535 -73.66314 10033 ft 322 kts 19°
2026-05-07 00:49 40.96615 -73.64977 10431 ft 344 kts 19°
2026-05-07 00:49 40.98826 -73.63558 10925 ft 359 kts 19°
2026-05-07 00:49 41.01101 -73.62085 11615 ft 368 kts 20°
2026-05-07 00:50 41.03416 -73.60580 12371 ft 375 kts 20°
2026-05-07 00:50 41.05764 -73.59050 13115 ft 381 kts 20°
2026-05-07 00:50 41.08167 -73.57485 13822 ft 387 kts 20°
2026-05-07 00:50 41.10599 -73.55904 14543 ft 390 kts 20°
2026-05-07 00:51 41.13047 -73.54311 15265 ft 393 kts 20°
2026-05-07 00:51 41.15511 -73.52708 16010 ft 396 kts 19°
2026-05-07 00:51 41.17990 -73.51093 16759 ft 398 kts 19°
2026-05-07 00:51 41.20480 -73.49463 17512 ft 400 kts 19°
2026-05-07 00:52 41.22982 -73.47824 18240 ft 403 kts 19°
2026-05-07 00:52 41.25508 -73.46174 18831 ft 406 kts 18°
2026-05-07 00:52 41.28055 -73.44512 19397 ft 411 kts 18°
2026-05-07 00:52 41.30635 -73.42827 19957 ft 415 kts 17°
2026-05-07 00:53 41.33243 -73.41125 20544 ft 420 kts 17°
2026-05-07 00:53 41.35885 -73.39400 21110 ft 424 kts 16°
2026-05-07 00:53 41.38544 -73.37666 21674 ft 429 kts 15°
2026-05-07 00:53 41.41236 -73.35903 22267 ft 434 kts 15°
2026-05-07 00:54 41.43705 -73.34281 22748 ft 438 kts 15°
2026-05-07 00:54 41.46442 -73.32419 23297 ft 449 kts 19°
2026-05-07 00:54 41.48998 -73.30023 23732 ft 468 kts 31°
2026-05-07 00:54 41.51368 -73.26967 24228 ft 477 kts 37°
2026-05-07 00:55 41.53711 -73.23817 24704 ft 479 kts 36°
2026-05-07 00:55 41.56078 -73.20662 25142 ft 482 kts 36°
2026-05-07 00:55 41.58536 -73.17634 25577 ft 477 kts 28°
2026-05-07 00:55 41.61268 -73.15234 26008 ft 464 kts 16°
2026-05-07 00:56 41.64180 -73.13525 26430 ft 451 kts
2026-05-07 00:56 41.67169 -73.12510 26856 ft 436 kts 355°
2026-05-07 00:56 41.70141 -73.12158 27272 ft 422 kts 346°
2026-05-07 00:56 41.73018 -73.12419 27656 ft 410 kts 338°
2026-05-07 00:57 41.75854 -73.12922 28027 ft 412 kts 338°
2026-05-07 00:57 41.78704 -73.13422 28448 ft 416 kts 338°
2026-05-07 00:57 41.81583 -73.13922 28817 ft 419 kts 338°
2026-05-07 00:57 41.84483 -73.14420 29229 ft 421 kts 338°
2026-05-07 00:58 41.87401 -73.14917 29641 ft 424 kts 338°
2026-05-07 00:58 41.90334 -73.15415 30011 ft 426 kts 338°
2026-05-07 00:58 41.93280 -73.15916 30331 ft 427 kts 338°
2026-05-07 00:58 41.96242 -73.16419 30664 ft 429 kts 338°
2026-05-07 00:59 42.02169 -73.17435 31325 ft 431 kts 338°
2026-05-07 00:59 42.05145 -73.17949 31690 ft 431 kts 338°
2026-05-07 00:59 42.08111 -73.18456 32140 ft 428 kts 338°
2026-05-07 01:00 42.11060 -73.18957 32606 ft 426 kts 338°
2026-05-07 01:00 42.13990 -73.19459 33068 ft 423 kts 337°
2026-05-07 01:00 42.16905 -73.19959 33543 ft 421 kts 337°
2026-05-07 01:00 42.19801 -73.20456 34022 ft 419 kts 337°
2026-05-07 01:01 42.22690 -73.20954 34368 ft 418 kts 337°
2026-05-07 01:01 42.25573 -73.21455 34678 ft 418 kts 337°
2026-05-07 01:01 42.28457 -73.21960 34966 ft 418 kts 337°
2026-05-07 01:01 42.31341 -73.22467 35246 ft 418 kts 337°
2026-05-07 01:02 42.34229 -73.22972 35543 ft 418 kts 338°
2026-05-07 01:02 42.37118 -73.23474 35860 ft 419 kts 338°
2026-05-07 01:02 42.40008 -73.23976 36208 ft 419 kts 338°
2026-05-07 01:02 42.42870 -73.24475 36381 ft 421 kts 338°
2026-05-07 01:03 42.45782 -73.24983 36591 ft 422 kts 338°
2026-05-07 01:03 42.48733 -73.25497 36806 ft 424 kts 338°
2026-05-07 01:03 42.51619 -73.26000 36866 ft 421 kts 338°
2026-05-07 01:04 42.57408 -73.27003 36874 ft 419 kts 338°
2026-05-07 01:04 42.63185 -73.28010 36872 ft 419 kts 339°
2026-05-07 01:05 42.68975 -73.29027 36881 ft 420 kts 339°
2026-05-07 01:05 42.74770 -73.30039 36876 ft 420 kts 339°
2026-05-07 01:06 42.80567 -73.31057 36935 ft 420 kts 339°
2026-05-07 01:06 42.86373 -73.32092 36874 ft 421 kts 339°
2026-05-07 01:07 42.92181 -73.33125 36880 ft 421 kts 339°
2026-05-07 01:07 42.98003 -73.34161 36877 ft 422 kts 339°
2026-05-07 01:08 43.03888 -73.34994 36902 ft 429 kts 342°
2026-05-07 01:08 43.09874 -73.35457 36879 ft 432 kts 344°
2026-05-07 01:09 43.15885 -73.35880 36874 ft 432 kts 343°
2026-05-07 01:09 43.21888 -73.36384 36913 ft 432 kts 343°
2026-05-07 01:10 43.27902 -73.36939 36896 ft 435 kts 343°
2026-05-07 01:10 43.34029 -73.37524 36904 ft 448 kts 343°
2026-05-07 01:11 43.40326 -73.38108 36944 ft 459 kts 345°
2026-05-07 01:11 43.46772 -73.38689 36901 ft 468 kts 345°
2026-05-07 01:12 43.53303 -73.39267 36897 ft 473 kts 345°
2026-05-07 01:12 43.59877 -73.39843 36889 ft 474 kts 345°
2026-05-07 01:13 43.66457 -73.40425 36890 ft 474 kts 345°
2026-05-07 01:13 43.73027 -73.41063 36893 ft 473 kts 345°
2026-05-07 01:14 43.79583 -73.41803 36919 ft 473 kts 344°
2026-05-07 01:14 43.86149 -73.42588 36907 ft 474 kts 344°
2026-05-07 01:15 43.92681 -73.43351 36903 ft 475 kts 345°
2026-05-07 01:15 43.98197 -73.43972 36934 ft 475 kts 345°
2026-05-07 01:16 44.05870 -73.44843 36906 ft 476 kts 345°
2026-05-07 01:16 44.12480 -73.45601 36902 ft 477 kts 345°
2026-05-07 01:17 44.19102 -73.46357 36904 ft 478 kts 346°
2026-05-07 01:17 44.24659 -73.46993 36895 ft 478 kts 345°
2026-05-07 01:17 44.27980 -73.47376 36741 ft 480 kts 345°
2026-05-07 01:18 44.31311 -73.47765 35989 ft 479 kts 346°
2026-05-07 01:18 44.34625 -73.48146 35837 ft 477 kts 346°
2026-05-07 01:18 44.37942 -73.48527 35914 ft 478 kts 346°
2026-05-07 01:19 44.44427 -73.49260 35698 ft 457 kts 346°
2026-05-07 01:19 44.47615 -73.49633 34751 ft 462 kts 346°
2026-05-07 01:19 44.50771 -73.50012 34195 ft 459 kts 346°
2026-05-07 01:19 44.53965 -73.50388 33155 ft 453 kts 346°
2026-05-07 01:20 44.57084 -73.50747 32342 ft 443 kts 347°
2026-05-07 01:20 44.60128 -73.51087 31310 ft 439 kts 349°
2026-05-07 01:20 44.63150 -73.51436 30147 ft 442 kts 350°
2026-05-07 01:20 44.66210 -73.51796 28982 ft 440 kts 350°
2026-05-07 01:21 44.69286 -73.52159 27945 ft 435 kts 349°
2026-05-07 01:21 44.72275 -73.52512 27030 ft 429 kts 349°
2026-05-07 01:21 44.75172 -73.52857 26140 ft 423 kts 349°
2026-05-07 01:21 44.78031 -73.53201 25294 ft 417 kts 348°
2026-05-07 01:22 44.80901 -73.53545 24453 ft 411 kts 348°
2026-05-07 01:22 44.83734 -73.53881 23639 ft 405 kts 348°
2026-05-07 01:22 44.86480 -73.54209 22751 ft 400 kts 348°
2026-05-07 01:22 44.89237 -73.54525 21854 ft 394 kts 348°
2026-05-07 01:23 44.91945 -73.54820 21011 ft 388 kts 348°
2026-05-07 01:23 44.94618 -73.55107 20184 ft 382 kts 348°
2026-05-07 01:23 44.97246 -73.55390 19388 ft 377 kts 347°
2026-05-07 01:23 44.99817 -73.55670 18618 ft 373 kts 348°
2026-05-07 01:24 45.02350 -73.55946 18064 ft 362 kts 347°
2026-05-07 01:24 45.04812 -73.56208 17223 ft 356 kts 348°
2026-05-07 01:24 45.07303 -73.56495 16138 ft 365 kts 348°
2026-05-07 01:24 45.09832 -73.56788 15163 ft 364 kts 348°
2026-05-07 01:25 45.12262 -73.57065 14263 ft 364 kts 349°
2026-05-07 01:25 45.14781 -73.57348 13291 ft 366 kts 349°
2026-05-07 01:25 45.17298 -73.57623 12233 ft 361 kts 350°
2026-05-07 01:25 45.19786 -73.57893 11226 ft 356 kts 350°
2026-05-07 01:26 45.22234 -73.58158 10241 ft 350 kts 350°
2026-05-07 01:26 45.24644 -73.58417 9218 ft 344 kts 351°
2026-05-07 01:26 45.26902 -73.58663 8400 ft 338 kts 352°
2026-05-07 01:26 45.29203 -73.58916 8112 ft 319 kts 352°
2026-05-07 01:27 45.31227 -73.59133 7988 ft 291 kts 352°
2026-05-07 01:27 45.33111 -73.59338 7947 ft 280 kts 352°
2026-05-07 01:27 45.34980 -73.59548 7592 ft 276 kts 352°
2026-05-07 01:27 45.36885 -73.59762 7209 ft 273 kts 353°
2026-05-07 01:28 45.38780 -73.59627 6841 ft 274 kts
2026-05-07 01:28 45.40511 -73.58794 6470 ft 275 kts 25°
2026-05-07 01:28 45.42121 -73.57344 6074 ft 273 kts 32°
2026-05-07 01:28 45.43687 -73.55831 5654 ft 271 kts 32°
2026-05-07 01:29 45.45243 -73.54333 5235 ft 269 kts 31°
2026-05-07 01:29 45.46788 -73.52847 4814 ft 267 kts 31°
2026-05-07 01:29 45.48322 -73.51365 4377 ft 265 kts 31°
2026-05-07 01:29 45.49844 -73.49897 4033 ft 263 kts 31°
2026-05-07 01:30 45.51326 -73.48464 3995 ft 249 kts 31°
2026-05-07 01:30 45.52705 -73.47124 4005 ft 231 kts 31°
2026-05-07 01:30 45.54013 -73.45863 4007 ft 224 kts 28°
2026-05-07 01:30 45.55435 -73.45180 3755 ft 213 kts 356°
2026-05-07 01:31 45.56803 -73.45740 3415 ft 204 kts 324°
2026-05-07 01:31 45.57930 -73.46959 3075 ft 202 kts 317°
2026-05-07 01:31 45.58993 -73.48254 3007 ft 201 kts 316°
2026-05-07 01:31 45.60055 -73.49573 3007 ft 203 kts 316°
2026-05-07 01:32 45.60951 -73.51089 3005 ft 200 kts 293°
2026-05-07 01:32 45.61332 -73.52993 3005 ft 200 kts 277°
2026-05-07 01:32 45.61277 -73.54982 3004 ft 202 kts 259°
2026-05-07 01:32 45.60791 -73.56819 3000 ft 194 kts 242°
2026-05-07 01:33 45.59955 -73.58305 2997 ft 192 kts 226°
2026-05-07 01:33 45.58977 -73.59587 2976 ft 190 kts 227°
2026-05-07 01:33 45.58040 -73.60820 2774 ft 175 kts 227°
2026-05-07 01:33 45.57193 -73.61933 2572 ft 153 kts 227°
2026-05-07 01:34 45.56454 -73.62906 2366 ft 137 kts 228°
2026-05-07 01:34 45.55774 -73.63803 2185 ft 130 kts 228°
2026-05-07 01:34 45.55121 -73.64664 2011 ft 127 kts 227°
2026-05-07 01:34 45.54478 -73.65511 1843 ft 125 kts 227°
2026-05-07 01:35 45.53839 -73.66352 1676 ft 125 kts 226°
2026-05-07 01:35 45.53199 -73.67194 1496 ft 125 kts 226°
2026-05-07 01:35 45.52562 -73.68030 1320 ft 125 kts 225°
2026-05-07 01:35 45.51924 -73.68867 1148 ft 124 kts 225°
2026-05-07 01:36 45.51285 -73.69709 978 ft 125 kts 225°
2026-05-07 01:36 45.50645 -73.70552 798 ft 126 kts 224°
2026-05-07 01:36 45.50005 -73.71392 640 ft 124 kts 223°
2026-05-07 01:36 45.49368 -73.72230 457 ft 124 kts 224°
2026-05-07 01:37 45.48731 -73.73065 262 ft 124 kts 223°
2026-05-07 01:37 45.48107 -73.73891 119 ft 116 kts 224°
2026-05-07 01:37 45.47618 -73.74529 109 ft 71 kts 223°
2026-05-07 01:37 45.47376 -73.74843 112 ft 27 kts 221°
2026-05-07 01:38 45.47235 -73.74943 114 ft 23 kts 193°
2026-05-07 01:38 45.47100 -73.74987 111 ft 17 kts 192°
2026-05-07 01:38 45.46985 -73.75025 110 ft 15 kts 193°
2026-05-07 01:38 45.46880 -73.75041 109 ft 16 kts 175°
2026-05-07 01:39 45.46760 -73.75033 108 ft 19 kts 178°
2026-05-07 01:39 45.46618 -73.75024 107 ft 22 kts 178°
2026-05-07 01:39 45.46455 -73.75016 106 ft 25 kts 178°
2026-05-07 01:39 45.46324 -73.75007 106 ft 15 kts 178°
2026-05-07 01:40 45.46222 -73.75000 105 ft 14 kts 177°
2026-05-07 01:40 45.46155 -73.74950 105 ft 11 kts 102°
2026-05-07 01:40 45.46156 -73.74841 104 ft 11 kts 88°
2026-05-07 01:40 45.46159 -73.74737 104 ft 10 kts 87°
2026-05-07 01:41 45.46163 -73.74635 103 ft 10 kts 89°
2026-05-07 01:41 45.46135 -73.74554 104 ft 9 kts 137°
2026-05-07 01:41 45.46087 -73.74516 103 ft 8 kts 168°
2026-05-07 01:41 45.46026 -73.74513 104 ft 9 kts 178°
2026-05-07 01:42 45.45971 -73.74530 104 ft 8 kts 227°
2026-05-07 01:42 45.45956 -73.74611 105 ft 10 kts 263°
2026-05-07 01:42 45.45966 -73.74718 105 ft 12 kts 288°
2026-05-07 01:42 45.45983 -73.74838 105 ft 10 kts 268°
2026-05-07 01:43 45.45980 -73.74939 105 ft 11 kts 269°
2026-05-07 01:43 45.46010 -73.75047 105 ft 11 kts 277°
2026-05-07 01:43 45.46008 -73.75139 105 ft 10 kts 264°
2026-05-07 01:43 45.46003 -73.75204 105 ft 2 kts 264°
2026-05-07 01:44 45.46000 -73.75221 105 ft 2 kts 252°
2026-05-07 01:44 45.45984 -73.75238 105 ft 4 kts 202°
2026-05-07 01:44 45.45960 -73.75235 105 ft 5 kts 170°
2026-05-07 01:44 45.45931 -73.75231 105 ft 2 kts 177°
2026-05-07 01:45 45.45925 -73.75230 105 ft 0 kts 177°